User: anonymous   Login
Location: Unspecified
(0.0000°N, 0.0000°E)
Time: 14:58:56
(UTC+00:00)
Language:

AUTCUBE 2 - Orbit

View from above orbital plane
View from above orbital plane
View from above satellite
View from above satellite

Ground track
Ground track

The orbit data is extracted from the following two-line orbital elements,

1 43679U 18084J   20227.81742195  .00000349  00000-0  39916-4 0  9998
2 43679  97.8941 347.0058 0008996   1.3618 358.7623 14.92246538 97753
Epoch (UTC): 14 August 2020 19:37:05
Eccentricity: 0.0008996
inclination: 97.8941°
perigee height: 584 km
apogee height: 597 km
right ascension of ascending node: 347.0058°
argument of perigee: 1.3618°
revolutions per day: 14.92246538
mean anomaly at epoch: 358.7623°
orbit number at epoch: 9775

The dashed part of the orbit path shows where the satellite is in the earth's shadow,  

DLR